Weather History for New River MCAS, NC

Change the Weather History Date:

Wednesday, December 5, 2012

  Actual Average Record
Temperature  
Mean Temperature 64 °F -  
Max Temperature 73 °F 59 °F 77 °F (1998)
Min Temperature 51 °F 38 °F 24 °F (2000)
Degree Days  
Heating Degree Days 1    
Growing Degree Days 14 (Base 50)    
Moisture  
Dew Point 52 °F    
Average Humidity 70    
Maximum Humidity 90    
Minimum Humidity 44    
Precipitation  
Precipitation 0.05 in - - ()
Sea Level Pressure  
Sea Level Pressure 30.18 in    
Wind  
Wind Speed 8 mph (WNW)    
Max Wind Speed 15 mph    
Max Gust Speed 22 mph    
Visibility 10 miles    
Events Rain    
Averages and records for this station are not official NWS values.
T = Trace of Precipitation, MM = Missing Value Source: NWS Daily Summary

Daily Weather History Graph

Daily Weather History Graph

Search for Another Location

Airport:

Trip Planner

Search our weather history database for the weather conditions in past years. The results will help you decide how hot, cold, wet, or windy it might be!

Date:

Astronomy

Dec. 05, 2012 Rise Set
Actual Time 7:02 AM EST 4:58 PM EST
Civil Twilight 6:34 AM EST 5:26 PM EST
Nautical Twilight 6:03 AM EST 5:57 PM EST
Astronomical Twilight 5:32 AM EST 6:28 PM EST
Moon 11:33 PM EST (12/5) 11:36 AM EST (12/5)
Length of Visible Light 10h 51m
Length of Day
9h 56m
Waning Gibbous, 60% of the Moon is Illuminated
Dec 5
Waning Gibbous
Dec 6
Last Quarter
Dec 13
New
Dec 20
First Quarter
Dec 28
Full

Hourly Weather History & Observations

Time (EST) Temp. Dew Point Humidity Pressure Visibility Wind Dir Wind Speed Gust Speed Precip Events Conditions
12:56 AM 60.1 °F 55.0 °F 83% 30.22 in 10.0 mi WSW 6.9 mph - N/A   Clear
1:56 AM 57.9 °F 54.0 °F 87% 30.22 in 10.0 mi WSW 6.9 mph - N/A   Clear
2:56 AM 57.9 °F 54.0 °F 87% 30.21 in 10.0 mi WSW 6.9 mph - N/A   Clear
3:56 AM 57.9 °F 54.0 °F 87% 30.19 in 10.0 mi WSW 6.9 mph - N/A   Clear
4:56 AM 57.0 °F 53.1 °F 87% 30.18 in 10.0 mi WSW 5.8 mph - N/A   Clear
5:56 AM 55.9 °F 53.1 °F 90% 30.19 in 10.0 mi WSW 5.8 mph - N/A   Clear
6:56 AM 57.0 °F 52.0 °F 83% 30.19 in 10.0 mi WSW 5.8 mph - N/A   Clear
7:56 AM 59.0 °F 53.1 °F 81% 30.20 in 10.0 mi WSW 6.9 mph - N/A   Clear
9:56 AM 64.9 °F 54.0 °F 68% 30.21 in 10.0 mi West 9.2 mph - N/A   Mostly Cloudy
10:56 AM 70.0 °F 53.1 °F 55% 30.19 in 10.0 mi WSW 10.4 mph - N/A   Mostly Cloudy
11:56 AM 73.0 °F 50.0 °F 44% 30.16 in 10.0 mi West 13.8 mph 21.9 mph N/A   Mostly Cloudy
12:56 PM 73.9 °F 51.1 °F 45% 30.13 in 10.0 mi West 15.0 mph 20.7 mph N/A   Mostly Cloudy
1:56 PM 73.9 °F 51.1 °F 45% 30.11 in 10.0 mi WSW 9.2 mph - N/A   Overcast
2:56 PM 72.0 °F 50.0 °F 46% 30.11 in 10.0 mi West 11.5 mph - N/A   Overcast
3:56 PM 71.1 °F 51.1 °F 49% 30.11 in 10.0 mi West 6.9 mph - N/A   Mostly Cloudy
4:56 PM 66.0 °F 52.0 °F 60% 30.12 in 10.0 mi Calm Calm - N/A   Mostly Cloudy
5:56 PM 64.9 °F 53.1 °F 65% 30.13 in 10.0 mi North 4.6 mph - N/A   Scattered Clouds
6:56 PM 64.9 °F 55.0 °F 70% 30.15 in 10.0 mi North 8.1 mph - N/A   Overcast
7:56 PM 64.0 °F 55.0 °F 73% 30.18 in 10.0 mi NNE 9.2 mph - N/A   Overcast
8:04 PM 62.6 °F 55.4 °F 77% 30.17 in 10.0 mi NNE 11.5 mph - N/A   Overcast
8:56 PM 59.0 °F 48.9 °F 69% 30.19 in 10.0 mi NE 15.0 mph - N/A   Overcast
9:56 PM 55.9 °F 48.9 °F 77% 30.20 in 10.0 mi NE 8.1 mph - 0.00 in   Overcast
10:32 PM 55.4 °F 48.2 °F 77% 30.20 in 10.0 mi NE 9.2 mph - N/A   Overcast
10:56 PM 55.0 °F 48.9 °F 80% 30.22 in 10.0 mi NE 9.2 mph - 0.01 in   Overcast
11:56 PM 51.1 °F 44.1 °F 77% 30.22 in 7.0 mi NE 8.1 mph - 0.04 in Rain Light Rain